This is the latest recevied weather packets stored in our database for station/object K9COE-11. If no packets are shown the sender has not sent any weather packets the latest 10 day(s).
| Time | Temp. | Humidity | Pressure | Rain* | Wind** | Luminosity | Snow |
|---|---|---|---|---|---|---|---|
| 1777670583 | 23.89° C | 48% | - | 0 mm | - | - | - |
| 1777670460 | 23.89° C | 47% | - | 0 mm | - | - | - |
| 1777670201 | 23.89° C | 47% | - | 0 mm | - | - | - |
| 1777669949 | 23.89° C | 50% | - | 0 mm | - | - | - |
| 1777669820 | 23.33° C | 50% | - | 0 mm | - | - | - |
| 1777669690 | 23.89° C | 50% | - | 0 mm | - | - | - |
| 1777669432 | 23.33° C | 50% | - | 0 mm | - | - | - |
| 1777668921 | 23.33° C | 50% | - | 0 mm | - | - | - |
| 1777668540 | 23.33° C | 50% | - | 0 mm | - | - | - |
| 1777667902 | 23.33° C | 51% | - | 0 mm | - | - | - |
| 1777667774 | 23.33° C | 50% | - | 0 mm | - | - | - |
| 1777667275 | 23.33° C | 52% | - | 0 mm | - | - | - |
| 1777666244 | 23.33° C | 48% | - | 0 mm | - | - | - |
| 1777665863 | 23.33° C | 50% | - | 0 mm | - | - | - |
| 1777665356 | 23.33° C | 51% | - | 0 mm | - | - | - |
| 1777665232 | 23.89° C | 50% | - | 0 mm | - | - | - |
| 1777664715 | 22.78° C | 51% | - | 0 mm | - | - | - |
| 1777664592 | 23.33° C | 51% | - | 0 mm | - | - | - |
| 1777664463 | 23.33° C | 50% | - | 0 mm | - | - | - |
| 1777664205 | 23.33° C | 51% | - | 0 mm | - | - | - |
| 1777663947 | 23.33° C | 51% | - | 0 mm | - | - | - |
| 1777663694 | 23.33° C | 51% | - | 0 mm | - | - | - |
| 1777663183 | 22.78° C | 52% | - | 0 mm | - | - | - |
| 1777662796 | 22.78° C | 51% | - | 0 mm | - | - | - |
| 1777662672 | 22.78° C | 52% | - | 0 mm | - | - | - |
* Rain latest 24 hours (hover to see other rain measurements)
** Current wind speed in m/s (hover to see current wind gust speed)